Location: Unspecified
(0.0000°N, 0.0000°E)
Time: 11:07:19
(UTC+00:00)

Altair - Visible Passes

Search period start: 23 July 2016 00:00
Search period end: 02 August 2016 00:00
Orbit: 1502 x 1682 km, 47.2° (Epoch: 21 July)

Date Brightness Start Highest point End Pass type
(mag) Time Alt. Az. Time Alt. Az. Time Alt. Az.
23 Jul 9.9 04:45:30 10° N 04:52:02 20° NE 04:58:40 10° E visible
23 Jul 8.6 19:38:35 10° WSW 19:47:07 40° NW 19:55:31 10° NNE visible
24 Jul 9.9 04:20:59 10° N 04:26:47 17° NE 04:32:39 10° E visible
24 Jul 8.5 19:13:11 10° WSW 19:21:59 45° NW 19:30:37 10° NNE visible
25 Jul 10.0 03:56:40 10° NNE 04:01:31 15° NE 04:06:26 10° ENE visible
25 Jul 8.4 18:47:50 10° SW 18:56:51 51° NW 19:05:40 10° NNE visible
26 Jul 10.0 03:32:39 10° NNE 03:36:15 12° NE 03:39:53 10° ENE visible
26 Jul 8.0 05:31:37 10° NNW 05:41:22 70° NE 05:51:25 10° SE visible
26 Jul 8.2 18:22:31 10° SW 18:31:43 58° NW 18:40:42 10° NNE visible
27 Jul 10.1 03:09:42 10° NE 03:10:57 10° NE 03:12:13 10° NE visible
27 Jul 8.1 05:06:34 10° NNW 05:16:12 63° NE 05:26:09 10° SE visible
28 Jul 8.3 04:41:33 10° NNW 04:51:02 56° NE 05:00:49 10° SE visible
28 Jul 10.0 19:43:15 10° WNW 19:46:24 12° NW 19:49:33 10° NNW visible
29 Jul 8.4 04:16:35 10° NNW 04:25:52 50° NE 04:35:27 10° ESE visible
29 Jul 9.9 19:16:42 10° WNW 19:21:10 14° NW 19:25:36 10° NNW visible
30 Jul 8.5 03:51:39 10° NNW 04:00:41 45° NE 04:10:03 10° ESE visible
30 Jul 9.9 18:50:32 10° W 18:55:56 17° NW 19:01:18 10° N visible
31 Jul 8.6 03:26:44 10° NNW 03:35:31 40° NE 03:44:35 10° ESE visible
31 Jul 7.9 05:30:58 10° WNW 05:40:08 46° SW 05:49:38 10° SSE visible
31 Jul 9.8 18:24:34 10° W 18:30:43 19° NW 18:36:49 10° N visible
01 Aug 8.7 03:01:51 10° NNW 03:10:21 35° NE 03:19:05 10° ESE visible
01 Aug 7.7 05:05:37 10° WNW 05:14:57 51° SW 05:24:38 10° SSE visible
